| time (UTC) | temp F | wind direction | speed knots | gust knots | rain 1hr in | rain 24hr in | rain mn in | humidity % | barometer mb |
| 20260507074726 | 43 | 353 | 4.3 | 5.2 | 0.00 | 0.00 | 0.00 | 50 | 1016.6 |
| 20260507072726 | 42 | 336 | 4.3 | 4.3 | 0.00 | 0.00 | 0.00 | 49 | 1016.6 |
| 20260507070726 | 42 | 313 | 3.5 | 4.3 | 0.00 | 0.00 | 0.00 | 55 | 1016.6 |
| 20260507064726 | 40 | 314 | 2.6 | 3.5 | 0.00 | 0.00 | 0.00 | 57 | 1016.7 |
| 20260507062726 | 39 | 345 | 2.6 | 4.3 | 0.00 | 0.00 | 0.00 | 62 | 1016.7 |
| 20260507060726 | 39 | 4 | 2.6 | 3.5 | 0.00 | 0.00 | 0.00 | 64 | 1016.6 |
| 20260507054726 | 38 | 344 | 2.6 | 3.5 | 0.00 | 0.00 | 0.00 | 71 | 1016.5 |
| 20260507052726 | 39 | 80 | 1.7 | 2.6 | 0.00 | 0.00 | 0.00 | 64 | 1016.4 |
| 20260507050725 | 37 | 33 | 0.9 | 1.7 | 0.00 | 0.00 | 0.00 | 69 | 1016.6 |
| 20260507044725 | 36 | 30 | 1.7 | 2.6 | 0.00 | 0.00 | 0.00 | 68 | 1016.8 |
| 20260507042725 | 36 | 65 | 2.6 | 3.5 | 0.00 | 0.00 | 0.00 | 71 | 1016.6 |
| 20260507040726 | 36 | 57 | 3.5 | 4.3 | 0.00 | 0.00 | 0.00 | 73 | 1016.6 |
| 20260507034726 | 36 | 54 | 3.5 | 4.3 | 0.00 | 0.00 | 0.00 | 73 | 1016.7 |
| 20260507032726 | 35 | 69 | 2.6 | 3.5 | 0.00 | 0.00 | 0.00 | 80 | 1016.6 |
| 20260507030726 | 35 | 51 | 1.7 | 3.5 | 0.00 | 0.00 | 0.00 | 86 | 1016.6 |
| 20260507024725 | 35 | 73 | 1.7 | 2.6 | 0.00 | 0.00 | 0.00 | 87 | 1016.6 |
| 20260507022726 | 35 | 78 | 2.6 | 3.5 | 0.00 | 0.00 | 0.00 | 88 | 1016.5 |
| 20260507020725 | 35 | 74 | 3.5 | 4.3 | 0.00 | 0.00 | 0.00 | 86 | 1016.3 |
| 20260507014725 | 36 | 70 | 3.5 | 4.3 | 0.00 | 0.00 | 0.00 | 87 | 1016.2 |
| 20260507012725 | 36 | 75 | 2.6 | 3.5 | 0.00 | 0.00 | 0.00 | 87 | 1016.1 |
| 20260507010725 | 37 | 347 | 1.7 | 2.6 | 0.00 | 0.00 | 0.00 | 81 | 1016.0 |
| 20260507004725 | 37 | 330 | 1.7 | 3.5 | 0.00 | 0.00 | 0.00 | 80 | 1015.9 |
| 20260507002725 | 37 | 356 | 2.6 | 3.5 | 0.00 | 0.00 | 0.00 | 76 | 1015.9 |
| 20260507000725 | 37 | 354 | 1.7 | 2.6 | 0.00 | 0.00 | 0.00 | 75 | 1015.8 |
| 20260506234725 | 38 | 334 | 1.7 | 1.7 | 0.00 | 0.00 | 0.00 | 70 | 1015.6 |
| 20260506232725 | 38 | 287 | 1.7 | 2.6 | 0.00 | 0.00 | 0.00 | 66 | 1015.5 |
| 20260506230726 | 38 | 309 | 1.7 | 3.5 | 0.00 | 0.00 | 0.00 | 60 | 1015.4 |
| 20260506224724 | 38 | 301 | 2.6 | 3.5 | 0.00 | 0.00 | 0.00 | 66 | 1015.3 |
| 20260506222725 | 39 | 317 | 2.6 | 3.5 | 0.00 | 0.00 | 0.00 | 65 | 1015.3 |
| 20260506220725 | 39 | 329 | 3.5 | 5.2 | 0.00 | 0.00 | 0.00 | 58 | 1015.1 |
| 20260506214725 | 40 | 311 | 2.6 | 3.5 | 0.00 | 0.00 | 0.00 | 53 | 1015.0 |
| 20260506212725 | 40 | 249 | 2.6 | 3.5 | 0.00 | 0.00 | 0.00 | 58 | 1014.9 |
| 20260506210724 | 41 | 243 | 3.5 | 4.3 | 0.00 | 0.00 | 0.00 | 51 | 1014.8 |
| 20260506204724 | 41 | 273 | 3.5 | 6.1 | 0.00 | 0.00 | 0.00 | 51 | 1014.7 |
| 20260506202724 | 42 | 290 | 6.1 | 7.8 | 0.00 | 0.00 | 0.00 | 41 | 1014.7 |
| 20260506200725 | 42 | 285 | 6.1 | 7.8 | 0.00 | 0.00 | 0.00 | 43 | 1014.6 |
| 20260506194724 | 43 | 287 | 6.1 | 7.8 | 0.00 | 0.00 | 0.00 | 42 | 1014.6 |
| 20260506192724 | 43 | 281 | 7.0 | 8.7 | 0.00 | 0.00 | 0.00 | 44 | 1014.6 |
| 20260506190724 | 44 | 268 | 7.0 | 8.7 | 0.00 | 0.00 | 0.00 | 44 | 1014.4 |
| 20260506184723 | 45 | 264 | 7.8 | 9.6 | 0.00 | 0.00 | 0.00 | 38 | 1014.3 |
| 20260506182725 | 45 | 257 | 8.7 | 9.6 | 0.00 | 0.00 | 0.00 | 44 | 1014.1 |
| 20260506180724 | 45 | 252 | 8.7 | 10.4 | 0.00 | 0.00 | 0.00 | 44 | 1013.9 |
| 20260506174724 | 46 | 247 | 9.6 | 11.3 | 0.00 | 0.00 | 0.00 | 36 | 1013.7 |
| 20260506172723 | 46 | 248 | 10.4 | 12.2 | 0.00 | 0.00 | 0.00 | 39 | 1013.6 |
| 20260506170723 | 46 | 270 | 8.7 | 11.3 | 0.00 | 0.00 | 0.00 | 44 | 1013.5 |
| 20260506164723 | 46 | 252 | 9.6 | 14.8 | 0.00 | 0.00 | 0.00 | 39 | 1013.3 |
| 20260506160723 | 46 | 256 | 11.3 | 15.6 | 0.00 | 0.00 | 0.00 | 30 | 1013.3 |
| 20260506154724 | 47 | 274 | 10.4 | 16.5 | 0.00 | 0.00 | 0.00 | 31 | 1013.4 |
| 20260506152723 | 46 | 275 | 12.2 | 17.4 | 0.00 | 0.00 | 0.00 | 34 | 1013.3 |
| 20260506150723 | 46 | 254 | 14.8 | 19.1 | 0.00 | 0.00 | 0.00 | 31 | 1013.2 |
| 20260506144722 | 46 | 271 | 11.3 | 15.6 | 0.00 | 0.00 | 0.00 | 32 | 1013.3 |
| 20260506142723 | 47 | 268 | 13.0 | 17.4 | 0.00 | 0.00 | 0.00 | 27 | 1013.2 |
| 20260506140722 | 47 | 273 | 13.0 | 20.0 | 0.00 | 0.00 | 0.00 | 24 | 1013.2 |
| 20260506134723 | 46 | 272 | 16.5 | 22.6 | 0.00 | 0.00 | 0.00 | 29 | 1013.1 |
| 20260506132722 | 47 | 267 | 11.3 | 16.5 | 0.00 | 0.00 | 0.00 | 28 | 1013.0 |
| 20260506130722 | 46 | 263 | 13.9 | 17.4 | 0.00 | 0.00 | 0.00 | 36 | 1012.8 |
| 20260506124722 | 47 | 284 | 14.8 | 20.9 | 0.00 | 0.00 | 0.00 | 28 | 1012.8 |
| 20260506122722 | 46 | 263 | 11.3 | 19.1 | 0.00 | 0.00 | 0.00 | 35 | 1012.7 |
| 20260506120722 | 46 | 247 | 15.6 | 21.7 | 0.00 | 0.00 | 0.00 | 29 | 1012.6 |
| 20260506114723 | 46 | 274 | 16.5 | 23.5 | 0.00 | 0.00 | 0.00 | 31 | 1012.5 |
| 20260506112723 | 46 | 263 | 15.6 | 22.6 | 0.00 | 0.00 | 0.00 | 36 | 1012.4 |
| 20260506110722 | 46 | 238 | 14.8 | 18.2 | 0.00 | 0.00 | 0.00 | 31 | 1012.3 |
| 20260506104724 | 46 | 256 | 13.9 | 25.2 | 0.00 | 0.00 | 0.00 | 33 | 1012.3 |
| 20260506102724 | 45 | 273 | 17.4 | 22.6 | 0.00 | 0.00 | 0.00 | 31 | 1012.2 |
| 20260506100724 | 45 | 250 | 14.8 | 22.6 | 0.00 | 0.00 | 0.00 | 31 | 1012.0 |
| 20260506094724 | 45 | 248 | 17.4 | 24.3 | 0.00 | 0.00 | 0.00 | 34 | 1011.7 |
| 20260506092723 | 44 | 263 | 17.4 | 21.7 | 0.00 | 0.00 | 0.00 | 37 | 1011.7 |
| 20260506090723 | 44 | 260 | 16.5 | 22.6 | 0.00 | 0.00 | 0.00 | 38 | 1011.6 |
| 20260506084724 | 44 | 242 | 13.9 | 19.1 | 0.00 | 0.00 | 0.00 | 40 | 1011.6 |
| 20260506082724 | 44 | 259 | 13.9 | 22.6 | 0.00 | 0.00 | 0.00 | 42 | 1011.5 |
| 20260506080723 | 43 | 272 | 14.8 | 21.7 | 0.00 | 0.00 | 0.00 | 41 | 1011.5 |